Weather History for BGGH - January, 2013

Change the Weather History Date:

Tuesday, January 22, 2013

  Actual Average Record
Temperature  
Mean Temperature 37 °F -  
Max Temperature 46 °F 19 °F 53 °F (2007)
Min Temperature 28 °F 13 °F 3 °F (2015)
Degree Days  
Heating Degree Days 28    
Moisture  
Dew Point 8 °F    
Average Humidity 28    
Maximum Humidity 41    
Minimum Humidity 10    
Precipitation  
Precipitation 0.02 in - - ()
Sea Level Pressure  
Sea Level Pressure 29.11 in    
Wind  
Wind Speed 15 mph ()    
Max Wind Speed 33 mph    
Max Gust Speed 39 mph    
Visibility 6.2 miles    
Events      
Averages and records for this station are not official NWS values.
T = Trace of Precipitation, MM = Missing Value Source: Averaged Metar Reports

Daily Weather History Graph

Daily Weather History Graph

Search for Another Location

Airport or City:

Trip Planner

Search our weather history database for the weather conditions in past years. The results will help you decide how hot, cold, wet, or windy it might be!

Date:

Astronomy

Jan. 22, 2013 Rise Set
Actual Time 9:35 AM WGT 3:41 PM WGT
Civil Twilight 8:33 AM WGT 4:44 PM WGT
Nautical Twilight 7:31 AM WGT 5:46 PM WGT
Astronomical Twilight 6:34 AM WGT 6:43 PM WGT
Moon 11:38 AM WGT (1/22) 6:12 AM WGT (1/22)
Length of Visible Light 8h 11m
Length of Day
6h 05m
Waxing Gibbous, 82% of the Moon is Illuminated
Jan 22
Waxing Gibbous
Jan 27
Full
Feb 3
Last Quarter
Feb 10
New
Feb 17
First Quarter

Hourly Weather History & Observations

Time (WGT) Temp. Windchill Dew Point Humidity Pressure Visibility Wind Dir Wind Speed Gust Speed Precip Events Conditions
12:00 AM 34 °F - 1 °F 13% 29.15 in 31 mi East 8.1 mph - -   Partly Cloudy
12:20 AM 32.0 °F 20.8 °F 5.0 °F 32% 29.15 in 6.2 mi ESE 17.3 mph - N/A   Partly Cloudy
12:50 AM 33.8 °F 23.9 °F 3.2 °F 28% 29.15 in 6.2 mi East 15.0 mph - N/A   Unknown
1:20 AM 28.4 °F 17.5 °F 6.8 °F 40% 29.12 in 6.2 mi East 13.8 mph - N/A   Unknown
1:50 AM 33.8 °F 23.9 °F 3.2 °F 28% 29.12 in 6.2 mi ESE 15.0 mph - N/A   Unknown
2:20 AM 32.0 °F 23.0 °F 3.2 °F 30% 29.12 in 6.2 mi East 11.5 mph - N/A   Unknown
2:50 AM 33.8 °F 24.3 °F 1.4 °F 25% 29.12 in 6.2 mi East 13.8 mph - N/A   Unknown
3:00 AM 34 °F - 0 °F 12% 29.09 in 31 mi East 19.6 mph - -   Partly Cloudy
3:20 AM 32.0 °F 19.2 °F 6.8 °F 35% 29.09 in 6.2 mi East 23.0 mph - N/A   Unknown
3:50 AM 33.8 °F 22.5 °F 5.0 °F 30% 29.09 in 6.2 mi East 19.6 mph - N/A   Unknown
4:20 AM 33.8 °F 22.8 °F 3.2 °F 28% 29.09 in 6.2 mi ESE 18.4 mph - N/A   Unknown
4:50 AM 35.6 °F 25.2 °F 3.2 °F 26% 29.09 in 6.2 mi ESE 18.4 mph - N/A   Unknown
5:50 AM 33.8 °F 22.2 °F 5.0 °F 30% 29.09 in 6.2 mi East 20.7 mph - N/A   Clear
6:00 AM 36 °F - 1 °F 11% 29.08 in 31 mi North 2.3 mph - -   Partly Cloudy
6:50 AM 33.8 °F 23.2 °F 5.0 °F 30% 29.12 in 6.2 mi ESE 17.3 mph - N/A   Clear
7:50 AM 32.0 °F 22.5 °F 8.6 °F 38% 29.12 in 6.2 mi ENE 12.7 mph - N/A   Clear
8:50 AM 33.8 °F 24.3 °F 8.6 °F 35% 29.15 in 6.2 mi ENE 13.8 mph - N/A   Partly Cloudy
9:00 AM 36 °F - 5 °F 15% 29.12 in 31 mi ENE 17.3 mph - -   Partly Cloudy
10:50 AM 33.8 °F 23.9 °F 10.4 °F 38% 29.15 in 6.2 mi East 15.0 mph - N/A   Mostly Cloudy
11:50 AM 35.6 °F 26.6 °F 8.6 °F 33% 29.12 in 6.2 mi East 13.8 mph - N/A   Mostly Cloudy
12:50 PM 37.4 °F 28.2 °F 8.6 °F 30% 29.15 in 6.2 mi East 16.1 mph - N/A   Mostly Cloudy
1:50 PM 39.2 °F 30.8 °F 12.2 °F 33% 29.12 in 6.2 mi East 15.0 mph - N/A   Mostly Cloudy
2:50 PM 39.2 °F 30.8 °F 10.4 °F 31% 29.12 in 6.2 mi ENE 15.0 mph - N/A   Mostly Cloudy
3:00 PM 38 °F - 8 °F 16% 29.10 in 31 mi NE 20.7 mph - -   Scattered Clouds
3:50 PM 37.4 °F 27.5 °F 10.4 °F 33% 29.12 in 6.2 mi East 18.4 mph - N/A   Mostly Cloudy
4:50 PM 37.4 °F 31.4 °F 12.2 °F 36% 29.12 in 6.2 mi ENE 8.1 mph - N/A   Mostly Cloudy
5:50 PM 37.4 °F 28.2 °F 15.8 °F 41% 29.09 in 6.2 mi ENE 16.1 mph - N/A   Mostly Cloudy
6:00 PM 39 °F - 13 °F 21% 29.07 in 31 mi NE 25.3 mph - -   Mostly Cloudy
6:50 PM 41.0 °F 31.6 °F 14.0 °F 33% 29.12 in 6.2 mi East 20.7 mph - N/A   Scattered Clouds
7:20 PM 41.0 °F 33.1 °F 15.8 °F 36% 29.09 in 6.2 mi East 15.0 mph - N/A   Mostly Cloudy
7:50 PM 44.6 °F 35.9 °F 10.4 °F 25% 29.09 in 6.2 mi East 23.0 mph - N/A   Mostly Cloudy
8:20 PM 46.4 °F 38.7 °F 8.6 °F 22% 29.09 in 6.2 mi East 20.7 mph - N/A   Mostly Cloudy
8:50 PM 44.6 °F 35.9 °F 10.4 °F 25% 29.09 in 6.2 mi East 23.0 mph 39.1 mph N/A   Partly Cloudy
9:00 PM 45 °F - 7 °F 10% 29.03 in 31 mi East 33.4 mph - -   Mostly Cloudy
9:20 PM 42.8 °F 34.3 °F 12.2 °F 29% 29.09 in 6.2 mi East 19.6 mph - N/A   Scattered Clouds
9:50 PM 44.6 °F 35.9 °F 12.2 °F 27% 29.09 in 6.2 mi East 23.0 mph - N/A   Mostly Cloudy
10:20 PM 44.6 °F 35.9 °F 14.0 °F 29% 29.09 in 6.2 mi ESE 23.0 mph - N/A   Mostly Cloudy
10:50 PM 44.6 °F 36.1 °F 10.4 °F 25% 29.06 in 6.2 mi East 21.9 mph - N/A   Mostly Cloudy
11:20 PM 44.6 °F 36.6 °F 10.4 °F 25% 29.09 in 6.2 mi East 19.6 mph - N/A   Mostly Cloudy
11:50 PM 44.6 °F 37.2 °F 10.4 °F 25% 29.09 in 6.2 mi East 17.3 mph - N/A   Mostly Cloudy